Location: Castellare
(42.4669°N, 9.4728°E)
Time: 03:24:53
(UTC+00:00)

Daily predictions for brighter satellites

Satellite Brightness Start Highest point End
(mag) Time Altitude Azimuth Time Altitude Azimuth Time Altitude Azimuth
NOSS 3-1 (C) 4.4 02:49:14 60° NE 02:49:27 61° NE 02:57:56 10° SE
Lacrosse 5 4.2 02:59:21 20° NE 02:59:21 20° NE 03:02:02 10° ENE
SL-16 R/B 3.6 02:59:40 35° ENE 02:59:40 35° ENE 03:03:42 10° NE
CZ-2C R/B 4.0 03:04:42 10° NNE 03:08:22 34° ENE 03:08:22 34° ENE
USA 215 4.3 03:14:52 10° NE 03:19:59 33° N 03:19:59 33° N
CZ-4C R/B 3.6 03:29:40 28° N 03:29:40 28° N 03:33:04 10° NNE
Cosmos 2333 Rocket 4.5 03:31:49 13° N 03:31:49 13° N 03:32:33 10° N
USA 229 DEB 3.7 03:35:49 74° WNW 03:36:31 81° WSW 03:44:08 10° SSE
USA 229 3.7 03:35:52 73° WNW 03:36:37 82° WSW 03:44:13 10° SSE
ATLAS CENTAUR R/B 3.0 03:43:09 34° NNE 03:43:09 34° NNE 03:45:41 10° NNE
NOSS 3-1 (A) 4.1 03:39:16 31° NNW 03:43:28 80° NE 03:52:11 10° SE
H-2A R/B 3.4 03:43:39 10° NNE 03:47:54 49° E 03:48:34 45° SE
USA 267 4.5 03:47:54 10° S 03:51:00 25° S 03:51:00 25° S
Cosmos 1934 Rocket 3.8 03:47:41 10° N 03:53:59 76° W 04:00:19 10° S
Cosmos 1992 Rocket 4.0 03:55:39 44° N 03:57:21 79° ENE 04:02:34 10° SSE
Cosmos 2251 Rocket 3.4 04:01:11 72° NW 04:01:11 72° NW 04:06:15 10° NNE
Cosmos 2237 Rocket 3.7 04:03:02 22° NNW 04:03:02 22° NNW 04:05:45 10° N
STARLINK-1045 4.3 04:02:37 49° SE 04:02:37 49° SE 04:05:41 10° SE
COSMO-SKYMED 1 4.0 04:00:25 10° SE 04:04:25 38° ENE 04:08:27 10° N
BREEZE M DEB (TANK) 4.3 04:06:13 28° NNE 04:06:13 28° NNE 04:10:45 10° ENE
STARLINK-1050 4.1 04:07:29 53° SE 04:07:29 53° SE 04:10:43 10° SE
Meteor 1-31 Rocket 3.9 04:06:12 10° NNE 04:08:25 33° NNE 04:08:25 33° NNE
STARLINK-1055 3.9 04:12:14 56° SSE 04:12:14 56° SSE 04:15:38 10° SE
Cosmos 1605 Rocket 3.8 04:07:56 10° N 04:14:12 80° W 04:20:19 10° S
STARLINK-1022 3.8 04:17:01 58° S 04:17:01 58° S 04:20:35 10° SE
Cosmos 1408 Rocket 3.3 04:16:25 63° NNW 04:17:01 77° W 04:21:23 10° S
Cosmos 2221 3.0 04:15:34 10° S 04:19:44 59° E 04:23:57 10° NNE
GEOS 3 Rocket 3.6 04:14:48 10° NNE 04:20:03 63° NW 04:21:26 47° WSW
CZ-4B R/B 3.9 04:16:47 10° N 04:21:04 69° WNW 04:21:31 63° WSW
STARLINK-1042 3.8 04:21:49 56° SSW 04:21:49 56° SSW 04:25:32 10° SE
Cosmos 1153 Rocket 4.5 04:20:05 10° N 04:26:17 83° E 04:32:24 10° S
STARLINK-1056 3.8 04:26:35 53° SSW 04:26:35 53° SSW 04:30:27 10° SE
Meteor 2-10 Rocket 3.9 04:27:19 42° WNW 04:27:19 42° WNW 04:32:13 10° N
STARLINK-1054 3.8 04:31:21 49° SW 04:31:22 49° SW 04:35:22 10° SSE
STARLINK-1062 3.9 04:36:09 44° SW 04:36:20 44° SW 04:40:17 10° SSE
Cosmos 1727 Rocket 3.9 04:31:43 10° SSW 04:37:55 78° W 04:44:07 10° N
Cosmos 1943 Rocket 2.1 04:32:40 10° NNW 04:38:13 85° ENE 04:43:44 10° SSE
Cosmos 2297 4.1 04:37:32 34° W 04:38:32 37° WSW 04:43:38 10° S
STARLINK-1053 4.1 04:40:55 39° WSW 04:41:16 40° SW 04:45:09 10° SSE
ADEOS Rocket 4.3 04:36:09 10° SE 04:41:54 44° ENE 04:48:19 10° N
Lacrosse 5 2.2 04:38:34 20° NW 04:42:01 65° NE 04:47:03 10° ESE
SL-16 R/B 2.9 04:41:35 31° WNW 04:42:38 33° NW 04:47:43 10° N
Cosmos 292 Rocket 4.1 04:43:28 28° NW 04:45:18 41° WSW 04:49:44 10° S
STARLINK-1061 4.2 04:45:43 35° WSW 04:46:15 37° SW 04:50:04 10° SSE
CZ-2C R/B 3.4 04:43:16 10° N 04:47:34 27° WNW 04:47:46 27° WNW
Cosmos 2173 Rocket 4.2 04:44:24 10° N 04:50:43 75° E 04:56:56 10° SSE
STARLINK-1067 4.3 04:50:28 31° WSW 04:51:11 33° SW 04:54:55 10° SSE
Cosmos 407 Rocket 3.6 04:46:18 10° SSW 04:51:38 83° ESE 04:56:58 10° NNE
SKYMED 2 3.5 04:48:09 10° S 04:52:27 64° W 04:56:47 10° NNW
Cosmos 1805 Rocket 4.2 04:51:04 10° N 04:55:21 57° E 04:59:37 10° SSE
FENGYUN 3A 3.6 04:52:44 10° N 04:58:10 74° WNW 05:03:35 10° SSW
Cosmos 1603 3.6 04:52:46 10° SSW 04:58:30 80° WNW 05:04:14 10° NNE
Cosmos 1140 Rocket 3.8 04:53:24 10° S 04:58:36 69° ESE 05:03:49 10° NNE
Cosmos 2369 Rocket 2.2 04:53:00 10° NNW 04:58:46 84° WSW 05:04:28 10° SSE
Cosmos 1238 4.0 04:56:28 10° S 04:59:34 76° W 05:02:35 10° N
Sich 1 4.1 04:58:27 10° N 05:02:37 48° ENE 05:06:47 10° SSE
Cosmos 2100 Rocket 3.9 04:56:42 10° N 05:02:56 83° W 05:09:06 10° S
Cosmos 1500 Rocket 3.7 04:58:49 10° NNW 05:03:08 51° W 05:07:23 10° S
Okean O Rocket 2.1 04:59:14 10° NNE 05:03:36 63° E 05:07:54 10° S
CZ-4B DEB 4.1 04:58:11 10° NNE 05:03:43 84° WNW 05:09:10 10° SSW
Cosmos 1943 3.2 05:00:05 10° SSW 05:05:41 89° WNW 05:11:22 10° NNE
Meteor 2-3 Rocket 4.1 05:01:45 10° NNW 05:07:07 42° W 05:12:31 10° SSW
Cosmos 2263 4.2 05:02:42 10° NNW 05:08:26 85° ENE 05:14:04 10° SSE
Cosmos 2061 Rocket 4.2 05:04:28 10° N 05:10:47 76° E 05:16:59 10° SSE
STARLINK-1098 4.4 05:07:38 10° SSW 05:11:28 48° SE 05:15:18 10° ENE
STARLINK-1070 2.7 05:10:27 16° SW 05:12:37 80° SE 05:15:32 10° NE
Cosmos 1000 Rocket 4.4 05:06:34 10° SSW 05:12:42 76° W 05:18:56 10° N
STARLINK-1124 2.6 05:11:29 19° WSW 05:13:25 80° NNW 05:16:20 10° NE
Cosmos 1190 Rocket 3.9 05:08:20 10° SSW 05:13:35 75° WNW 05:18:55 10° NNE
STARLINK-1066 2.7 05:11:32 16° SW 05:13:44 82° SE 05:16:40 10° NE
STARLINK-1081 2.7 05:11:45 16° SW 05:13:58 83° SE 05:16:54 10° NE
STARLINK-1069 2.7 05:12:11 16° SW 05:14:25 84° SE 05:17:21 10° NE
Cosmos 1743 Rocket 4.1 05:10:35 10° NNW 05:14:30 34° W 05:18:24 10° SSW
STARLINK-1085 2.7 05:12:23 16° SW 05:14:37 84° SSE 05:17:33 10° NE
STARLINK-1086 2.7 05:12:36 15° SW 05:14:51 84° SE 05:17:47 10° NE
STARLINK-1095 2.6 05:12:49 15° SW 05:15:05 85° SE 05:18:00 10° NE
STARLINK-1077 2.6 05:13:02 15° SW 05:15:19 85° SE 05:18:15 10° NE
CZ-4B R/B 3.3 05:10:05 10° NNE 05:15:26 79° ESE 05:20:43 10° S
STARLINK-1075 2.6 05:13:16 15° SW 05:15:33 86° SE 05:18:29 10° NE
STARLINK-1093 2.6 05:13:28 15° SW 05:15:46 86° SE 05:18:42 10° NE
STARLINK-1123 4.3 05:12:03 10° SW 05:15:55 53° SE 05:19:48 10° ENE
STARLINK-1074 2.6 05:13:41 15° SW 05:15:59 87° SE 05:18:55 10° NE
STARLINK-1087 2.6 05:13:54 15° SW 05:16:13 87° SE 05:19:08 10° NE
STARLINK-1088 2.6 05:14:07 15° SW 05:16:25 88° SE 05:19:21 10° NE
STARLINK-1115 2.6 05:14:19 15° SW 05:16:39 88° SE 05:19:34 10° NE
Cosmos 1484 Rocket 3.9 05:13:36 10° NNW 05:16:45 23° WNW 05:19:55 10° WSW
STARLINK-1076 2.6 05:14:33 15° SW 05:16:53 88° SE 05:19:48 10° NE
STARLINK-1092 2.6 05:14:46 15° SW 05:17:06 89° SE 05:20:02 10° NE
STARLINK-1080 2.6 05:15:00 15° SW 05:17:20 89° S 05:20:16 10° NE
DMSP B5D1-3 4.5 05:12:19 10° SSE 05:17:24 87° WSW 05:22:32 10° NNW
STARLINK-1090 2.6 05:15:12 15° SW 05:17:33 90° ENE 05:20:29 10° NE
STARLINK-1089 2.6 05:15:24 14° SW 05:17:46 90° W 05:20:42 10° NE
CZ-4C R/B 4.2 05:15:08 10° NW 05:17:59 14° NNW 05:21:02 10° NNE
STARLINK-1107 2.6 05:15:39 14° SW 05:18:00 89° NW 05:20:56 10° NE
CZ-4B R/B 4.2 05:15:41 10° NNW 05:18:07 17° WNW 05:18:23 17° WNW
STARLINK-1109 2.6 05:15:51 14° SW 05:18:14 89° NNW 05:21:09 10° NE
STARLINK-1091 2.6 05:16:04 14° SW 05:18:28 88° NNW 05:21:23 10° NE
STARLINK-1072 2.6 05:16:16 14° SW 05:18:40 88° NW 05:21:37 10° NE
STARLINK-1096 2.6 05:16:30 14° SW 05:18:54 87° NW 05:21:49 10° NE
BREEZE M DEB (TANK) 4.2 05:09:12 10° WNW 05:19:01 33° WSW 05:22:33 10° S
STARLINK-1079 2.6 05:16:42 14° SW 05:19:07 87° NW 05:22:04 10° NE
STARLINK-1116 2.6 05:16:56 14° SW 05:19:21 86° NW 05:22:17 10° NE
STARLINK-1094 2.6 05:17:21 14° SW 05:19:47 86° NW 05:22:43 10° NE
STARLINK-1117 2.6 05:17:34 14° SW 05:20:01 85° NW 05:22:57 10° NE
STARLINK-1078 2.6 05:17:48 14° SW 05:20:15 85° NW 05:23:11 10° NE
STARLINK-1097 4.1 05:16:27 10° SW 05:20:22 58° SE 05:24:18 10° ENE
STARLINK-1108 2.6 05:18:00 14° SW 05:20:28 84° NW 05:23:24 10° NE
STARLINK-1071 2.6 05:18:14 13° SW 05:20:41 84° NW 05:23:37 10° NE
ALOS 2.7 05:16:22 10° N 05:20:42 38° WNW 05:25:00 10° SW
ATLAS CENTAUR R/B 3.5 05:19:22 13° WNW 05:20:44 14° NW 05:23:09 10° N
STARLINK-1110 2.6 05:18:27 13° SW 05:20:56 83° NW 05:23:52 10° NE
STARLINK-1122 2.6 05:18:52 13° SW 05:21:23 83° NNW 05:24:18 10° NE
STARLINK-1126 2.6 05:19:05 13° SW 05:21:36 82° NW 05:24:32 10° NE
STARLINK-1082 2.6 05:19:19 13° SW 05:21:50 82° NW 05:24:45 10° NE
Meteor 2-2 Rocket 4.5 05:15:58 10° SSW 05:21:52 57° WNW 05:27:49 10° N
STARLINK-1100 2.6 05:19:31 13° SW 05:22:03 81° NW 05:24:59 10° NE
Cosmos 1459 Rocket 4.0 05:16:09 10° NNW 05:22:15 64° W 05:28:24 10° S
STARLINK-1083 2.6 05:19:44 13° SW 05:22:16 81° NW 05:25:12 10° NE
STARLINK-1125 2.6 05:19:58 13° WSW 05:22:31 80° NW 05:25:26 10° NE
H-2A R/B 4.1 05:20:09 10° NNW 05:23:01 17° WNW 05:25:10 13° W
Cosmos 2084 4.0 05:19:50 10° SSW 05:24:17 67° ESE 05:28:46 10° NE
STARLINK-1099 3.9 05:20:54 10° SW 05:24:50 63° SE 05:28:47 10° ENE
Cosmos 1656 Rocket 3.9 05:19:33 10° NNW 05:25:16 75° ENE 05:30:57 10° SSE
Cosmos 614 Rocket 4.3 05:21:25 10° SW 05:26:18 43° WNW 05:31:16 10° N
STARLINK-1118 2.4 05:25:58 13° WSW 05:28:10 62° NW 05:30:45 10° NE
Cosmos 1725 Rocket 4.2 05:22:04 10° N 05:28:21 80° E 05:34:38 10° S
Cosmos 2123 Rocket 4.1 05:22:57 10° S 05:29:16 87° E 05:35:37 10° N
STARLINK-1104 3.8 05:25:22 10° SW 05:29:20 69° SE 05:33:17 10° ENE
Cosmos 676 Rocket 4.1 05:25:19 10° SSW 05:30:37 87° WNW 05:36:00 10° NNE
Cosmos 1151 Rocket 4.4 05:28:13 10° SSE 05:32:17 45° E 05:36:26 10° NNE
STARLINK-1144 3.7 05:29:52 10° SW 05:33:51 76° SE 05:37:50 10° NE
Cosmos 1802 Rocket 4.1 05:29:13 10° NNW 05:35:33 62° W 05:41:52 10° S
Cosmos 1633 3.0 05:32:19 10° NNW 05:35:45 39° W 05:39:10 10° SSW
PAYLOAD B 4.4 05:30:40 10° N 05:36:05 52° WNW 05:41:25 10° SW
STARLINK-1103 3.6 05:34:21 10° SW 05:38:20 82° SE 05:42:20 10° NE
Shenzhou-11 Module 2.4 05:37:40 10° WSW 05:40:14 49° SSE 05:42:49 10° E
COSMO-SKYMED 1 3.9 05:37:32 10° SW 05:40:43 20° W 05:43:53 10° NW
Aureole 2 Rocket 3.0 05:38:58 10° NW 05:41:40 30° WSW 05:44:29 10° SSW
STARLINK-1101 3.5 05:38:56 10° SW 05:42:55 89° SE 05:46:56 10° NE
NOAA 6 4.2 05:38:24 10° N 05:43:25 51° WNW 05:48:23 10° SW
STARLINK-1128 3.5 05:41:33 10° SW 05:45:30 85° NW 05:49:27 10° NE
STARLINK-1102 3.5 05:43:23 10° SW 05:47:23 85° NW 05:51:24 10° NE
SL-08 R/B 4.4 05:41:33 10° NNW 05:47:40 70° W 05:53:41 10° S
Cosmos 1864 Rocket 4.5 05:42:51 10° NNW 05:48:58 71° W 05:55:04 10° S
STARLINK-1113 3.5 05:45:54 10° WSW 05:49:51 80° NW 05:53:48 10° NE
Cosmos 921 Rocket 3.7 05:45:54 10° NW 05:49:57 35° W 05:53:53 10° SSW
Cosmos 1340 3.6 05:46:59 10° N 05:50:41 53° ENE 05:54:21 10° SSE
Cosmos 1633 Rocket 3.0 05:47:00 10° N 05:51:23 84° W 05:55:46 10° S
